McCook, NE

11:14 PM CDT on September 30, 2016 (GMT -0500)
McCook Municipal

Weather History for KMCK - November, 2011

Change the Weather History Date:

Thursday, November 3, 2011

  Actual Average Record
Temperature  
Mean Temperature 33 °F 44 °F  
Max Temperature 49 °F 59 °F 85 °F (1909)
Min Temperature 16 °F 30 °F -2 °F (1991)
Degree Days  
Heating Degree Days 33    
Moisture  
Dew Point 20 °F    
Average Humidity 68    
Maximum Humidity 89    
Minimum Humidity 34    
Precipitation  
Precipitation 0.00 in 0.05 in 0.85 in (1990)
Month to date precipitation 0.10 0.13  
Year to date precipitation 19.02 21.07  
Sea Level Pressure  
Sea Level Pressure 30.38 in    
Wind  
Wind Speed 9 mph (SW)    
Max Wind Speed 14 mph    
Max Gust Speed -    
Visibility 10 miles    
Events      
T = Trace of Precipitation, MM = Missing Value Source: NWS Daily Summary

Daily Weather History Graph

Daily Weather History Graph

Search for Another Location

Airport or City:

Trip Planner

Search our weather history database for the weather conditions in past years. The results will help you decide how hot, cold, wet, or windy it might be!

Date:

Astronomy

Nov. 03, 2011 Rise Set
Actual Time 8:13 AM CDT 6:37 PM CDT
Civil Twilight 7:45 AM CDT 7:05 PM CDT
Nautical Twilight 7:13 AM CDT 7:37 PM CDT
Astronomical Twilight 6:41 AM CDT 8:09 PM CDT
Moon 3:02 PM CDT (11/3) 1:27 AM CDT (11/3)
Length of Visible Light 11h 20m
Length of Day
10h 23m
First Quarter, 60% of the Moon is Illuminated
Nov 3
First Quarter
Nov 10
Full
Nov 18
Last Quarter
Nov 25
New
Dec 2
First Quarter

Hourly Weather History & Observations

Time (CDT) Temp. Windchill Dew Point Humidity Pressure Visibility Wind Dir Wind Speed Gust Speed Precip Events Conditions
12:53 AM 23.0 °F 13.1 °F 19.0 °F 85% 30.49 in 10.0 mi WNW 9.2 mph - N/A   Clear
1:53 AM 21.0 °F 9.3 °F 18.0 °F 88% 30.50 in 10.0 mi WSW 11.5 mph - N/A   Clear
2:53 AM 23.0 °F 10.6 °F 19.0 °F 85% 30.48 in 10.0 mi West 13.8 mph - N/A   Clear
3:53 AM 21.9 °F 10.4 °F 19.0 °F 89% 30.48 in 10.0 mi West 11.5 mph - N/A   Clear
4:53 AM 21.9 °F 9.2 °F 18.0 °F 85% 30.46 in 10.0 mi West 13.8 mph - N/A   Clear
5:53 AM 21.0 °F 8.6 °F 17.1 °F 85% 30.47 in 10.0 mi West 12.7 mph - N/A   Clear
6:53 AM 19.9 °F 8.6 °F 16.0 °F 85% 30.46 in 10.0 mi West 10.4 mph - N/A   Clear
7:53 AM 16.0 °F 7.4 °F 12.9 °F 88% 30.47 in 10.0 mi West 5.8 mph - N/A   Clear
8:53 AM 19.0 °F 11.1 °F 16.0 °F 88% 30.49 in 10.0 mi SW 5.8 mph - N/A   Clear
9:53 AM 25.0 °F 17.1 °F 19.0 °F 78% 30.48 in 10.0 mi West 6.9 mph - N/A   Clear
10:53 AM 30.0 °F 25.2 °F 21.0 °F 69% 30.47 in 10.0 mi West 4.6 mph - N/A   Clear
11:53 AM 35.1 °F - 24.1 °F 64% 30.44 in 10.0 mi Calm Calm - N/A   Clear
12:53 PM 39.9 °F 36.7 °F 28.0 °F 63% 30.40 in 10.0 mi SW 4.6 mph - N/A   Clear
1:53 PM 45.0 °F 41.8 °F 24.1 °F 44% 30.35 in 10.0 mi SSW 5.8 mph - N/A   Clear
2:53 PM 46.9 °F - 21.9 °F 37% 30.32 in 10.0 mi South 11.5 mph - N/A   Clear
3:53 PM 48.2 °F - 21.2 °F 34% 30.25 in 10.0 mi South 12.7 mph - N/A   Clear
4:53 PM 48.0 °F - 21.0 °F 34% 30.29 in 10.0 mi SSW 12.7 mph - N/A   Clear
5:53 PM 46.0 °F 41.9 °F 21.9 °F 39% 30.27 in 10.0 mi South 8.1 mph - N/A   Clear
6:53 PM 39.0 °F 32.8 °F 23.0 °F 53% 30.28 in 10.0 mi SSE 9.2 mph - N/A   Clear
7:53 PM 35.1 °F 27.9 °F 21.0 °F 57% 30.29 in 10.0 mi SSE 9.2 mph - N/A   Clear
8:53 PM 32.0 °F 24.2 °F 21.2 °F 64% 30.18 in 10.0 mi SE 9.2 mph - N/A   Clear
9:53 PM 30.0 °F 21.7 °F 21.0 °F 69% 30.25 in 10.0 mi SE 9.2 mph - N/A   Clear
10:53 PM 30.0 °F 22.4 °F 21.0 °F 69% 30.25 in 10.0 mi SSE 8.1 mph - N/A   Clear
11:53 PM 28.9 °F - 19.9 °F 69% 30.23 in 10.0 mi Calm Calm - N/A   Clear